Weather in Shashemene

Ethiopia     7°13′19″N   38°33′48″E
temp.,
°C
wind,
m/s
gust,
m/s
humid.,
%
clouds,
%
prec.,
mm/h
press.,
hPa
HPBL,
m
6 may, thu
thu600:00+17sse2389100 2.8 101378
03:00+16ssw2295100 12.8 1012109
06:00+15s2293100 3.8 101443
09:00+20s347160 5.7 1014443
12:00+22nw226249 2.8 10131237
15:00+22n3366100 6.4 1011979
18:00+18ese2284100 5.8 101241
21:00+15s2293100 17.7 101597
7 may, fri
fri700:00+16nne1286100 0.1 101558
03:00+16ne118994 0.1 101432
06:00+16ene1192100 0.3 101636
09:00+16se0092100 2.4 1018124
12:00+17n238795 1.1 1016452
15:00+18n7884100 3.0 1014795
18:00+16ne3794100 3.1 1015373
21:00+16nne1195100 5.3 101748
8 may, sat
sat800:00+16wnw1195100 0.4 101625
03:00+15wnw0094100 0.5 101617
06:00+14ene1194100 0.1 101712
09:00+18n227971 0.3 1017656
12:00+22n4461100 0.3 10141093
15:00+23ne335592 0.8 10101261
18:00+20sse2274100 1.8 101121
21:00+16ssw4593100 25.8 1015141
9 may, sun
sun900:00+14sw2493100 4.3 1017121
03:00+15ssw1289100 4.4 101578
06:00+15s1187100 0.0 101628
09:00+18w1175100 0.1 1016503
12:00+22w1160100 0.8 10131261
15:00+22sw2264100 4.6 1010986
18:00+19s2282100 5.5 101238
21:00+15ssw3795100 9.7 1016234
10 may, mon
mon1000:00+15ssw3491100 0.4 1017140
03:00+15s1190100 0.6 101618
06:00+14se1290100 0.0 101717
09:00+18ssw117399 0.0 1018474
12:00+22wsw2159100 0.1 10141255
15:00+22w2261100 1.9 10121091
18:00+18s4583100 4.8 1013129
21:00+15ssw3593100 7.1 1017141